Weather in Lebedinka

Russia / Omsk Oblast     56°55′05″N   75°50′36″E
temp.,
°C
wind,
m/s
gust,
m/s
humid.,
%
clouds,
%
prec.,
mm/h
press.,
hPa
HPBL,
m
15 august, mon
mon1500:00+10wnw412965 0.4 1010500
03:00+9w3109548 0.0 1011310
06:00+9wnw4119528 0.0 1011594
09:00+12wnw51063100 0.0 10121631
12:00+14nw595199 0.1 10131980
15:00+15nw6853100 0.3 10141885
18:00+13nnw5115443 0.4 10151919
21:00+10nw3105955 0.0 10151201
16 august, tue
tue1600:00+6wnw3108019 0.0 1016277
03:00+9wnw31167100 0.0 1015528
06:00+9wnw3106897 0.0 1016399
09:00+11nw496380 0.0 1016609
12:00+15nw5846100 0.0 10151926
15:00+15wnw3754100 0.0 10141533
18:00+15w2660100 0.0 1012568
21:00+10w269991 2.3 1013202
17 august, wed
wed1700:00+9wnw3996100 2.6 1012326
03:00+7wnw3109883 0.0 1012362
06:00+6wnw3109820 0.0 1012302
09:00+9nw478878 0.0 1012630
12:00+9nw4988100 0.5 1012777
15:00+8nw4990100 0.3 10131227
18:00+8nnw4889100 0.6 10141073
21:00+8nnw4991100 0.1 1014625
18 august, thu
thu1800:00+7nnw3989100 0.1 1015556
03:00+5nnw389455 0.0 1015375
06:00+3nw289487 0.0 1016211
09:00+6nnw3785100 0.1 1017466
12:00+8nnw4577100 0.2 1018909
15:00+10nw4566100 0.2 10181264
18:00+10nw3673100 0.3 1018878
21:00+8nw3884100 0.0 1019622
19 august, fri
fri1900:00+8nw3890100 0.0 1018563
03:00+7wnw3998100 0.4 1017432
06:00+8nw41098100 0.8 1017458
09:00+10nw4994100 0.0 1018522
12:00+13nw4774100 0.0 1018803
15:00+15nw5863100 0.2 10181462
18:00+15nnw4966100 0.4 10181174
21:00+11nnw397731 0.1 1020293